| time (UTC) | temp F | wind direction | speed MPH | gust MPH | rain 1hr in | rain 24hr in | rain mn in | humidity % | barometer mb |
| 20260506223308 | 48 | 44 | 3.0 | 5.0 | 0.00 | 0.00 | 0.00 | 79 | 1012.8 |
| 20260506222306 | 48 | 10 | 2.0 | 6.0 | 0.00 | 0.00 | 0.00 | 79 | 1012.8 |
| 20260506221308 | 48 | 39 | 2.0 | 6.0 | 0.00 | 0.00 | 0.00 | 79 | 1012.8 |
| 20260506220308 | 49 | 31 | 2.0 | 7.0 | 0.00 | 0.00 | 0.00 | 79 | 1012.6 |
| 20260506215306 | 49 | 34 | 2.0 | 7.0 | 0.00 | 0.00 | 0.00 | 79 | 1012.5 |
| 20260506214306 | 49 | 48 | 3.0 | 6.0 | 0.00 | 0.00 | 0.00 | 79 | 1012.5 |
| 20260506213304 | 49 | 27 | 2.0 | 7.0 | 0.00 | 0.00 | 0.00 | 79 | 1012.5 |
| 20260506212306 | 50 | 68 | 4.0 | 7.0 | 0.00 | 0.00 | 0.00 | 78 | 1012.4 |
| 20260506211305 | 50 | 39 | 4.0 | 10.0 | 0.00 | 0.00 | 0.00 | 77 | 1012.4 |
| 20260506210307 | 50 | 59 | 4.0 | 7.0 | 0.00 | 0.00 | 0.00 | 76 | 1012.3 |
| 20260506205306 | 50 | 75 | 3.0 | 9.0 | 0.00 | 0.00 | 0.00 | 75 | 1012.2 |
| 20260506204305 | 51 | 72 | 3.0 | 9.0 | 0.00 | 0.00 | 0.00 | 75 | 1012.3 |
| 20260506203307 | 51 | 44 | 4.0 | 7.0 | 0.00 | 0.00 | 0.00 | 74 | 1012.2 |
| 20260506202306 | 51 | 25 | 6.0 | 10.0 | 0.00 | 0.00 | 0.00 | 73 | 1012.1 |
| 20260506201308 | 51 | 44 | 4.0 | 6.0 | 0.00 | 0.00 | 0.00 | 72 | 1012.1 |
| 20260506200307 | 51 | 51 | 6.0 | 11.0 | 0.00 | 0.00 | 0.00 | 72 | 1012.0 |
| 20260506195307 | 52 | 38 | 4.0 | 10.0 | 0.00 | 0.00 | 0.00 | 71 | 1011.8 |
| 20260506194306 | 52 | 61 | 3.0 | 9.0 | 0.00 | 0.00 | 0.00 | 70 | 1011.7 |
| 20260506192307 | 53 | 38 | 6.0 | 12.0 | 0.00 | 0.00 | 0.00 | 67 | 1011.6 |
| 20260506190304 | 53 | 37 | 4.0 | 7.0 | 0.00 | 0.00 | 0.00 | 64 | 1011.3 |
| 20260506185307 | 54 | 24 | 8.0 | 14.0 | 0.00 | 0.00 | 0.00 | 63 | 1011.1 |
| 20260506184307 | 54 | 86 | 6.0 | 14.0 | 0.00 | 0.00 | 0.00 | 61 | 1011.0 |
| 20260506183233 | 55 | 31 | 7.0 | 13.0 | 0.00 | 0.00 | 0.00 | 60 | 1011.0 |
| 20260506182233 | 55 | 61 | 5.0 | 10.0 | 0.00 | 0.00 | 0.00 | 59 | 1010.8 |
| 20260506181229 | 56 | 66 | 8.0 | 15.0 | 0.00 | 0.00 | 0.00 | 58 | 1010.7 |
| 20260506175230 | 56 | 102 | 9.0 | 12.0 | 0.00 | 0.00 | 0.00 | 55 | 1010.5 |
| 20260506174225 | 56 | 69 | 9.0 | 14.0 | 0.00 | 0.00 | 0.00 | 54 | 1010.4 |
| 20260506173218 | 56 | 44 | 6.0 | 16.0 | 0.00 | 0.00 | 0.00 | 54 | 1010.2 |
| 20260506172219 | 56 | 58 | 5.0 | 14.0 | 0.00 | 0.00 | 0.00 | 53 | 1010.1 |
| 20260506170215 | 57 | 51 | 11.0 | 17.0 | 0.00 | 0.00 | 0.00 | 55 | 1010.1 |
| 20260506165207 | 57 | 51 | 9.0 | 16.0 | 0.00 | 0.00 | 0.00 | 57 | 1009.9 |
| 20260506163205 | 57 | 0 | 5.0 | 17.0 | 0.00 | 0.00 | 0.00 | 57 | 1009.9 |
| 20260506162204 | 57 | 345 | 5.0 | 12.0 | 0.00 | 0.00 | 0.00 | 58 | 1009.7 |
| 20260506160206 | 58 | 93 | 8.0 | 13.0 | 0.00 | 0.00 | 0.00 | 57 | 1009.8 |
| 20260506155204 | 58 | 62 | 7.0 | 18.0 | 0.00 | 0.00 | 0.00 | 58 | 1009.9 |
| 20260506154200 | 58 | 62 | 8.0 | 15.0 | 0.00 | 0.00 | 0.00 | 59 | 1009.8 |
| 20260506153159 | 58 | 0 | 9.0 | 18.0 | 0.00 | 0.00 | 0.00 | 58 | 1009.8 |
| 20260506152157 | 58 | 61 | 9.0 | 16.0 | 0.00 | 0.00 | 0.00 | 58 | 1009.6 |
| 20260506151157 | 58 | 52 | 7.0 | 12.0 | 0.00 | 0.00 | 0.00 | 58 | 1009.6 |
| 20260506150156 | 58 | 61 | 9.0 | 17.0 | 0.00 | 0.00 | 0.00 | 57 | 1009.6 |
| 20260506145159 | 59 | 49 | 7.0 | 16.0 | 0.00 | 0.00 | 0.00 | 55 | 1009.6 |
| 20260506144159 | 60 | 30 | 11.0 | 20.0 | 0.00 | 0.00 | 0.00 | 54 | 1009.6 |
| 20260506143156 | 60 | 66 | 6.0 | 16.0 | 0.00 | 0.00 | 0.00 | 54 | 1009.4 |
| 20260506140155 | 61 | 73 | 6.0 | 11.0 | 0.00 | 0.00 | 0.00 | 54 | 1009.5 |
| 20260506135156 | 61 | 49 | 6.0 | 13.0 | 0.00 | 0.00 | 0.00 | 53 | 1009.4 |
| 20260506134156 | 60 | 0 | 9.0 | 15.0 | 0.00 | 0.00 | 0.00 | 55 | 1009.4 |
| 20260506133157 | 60 | 44 | 8.0 | 15.0 | 0.00 | 0.00 | 0.00 | 55 | 1009.4 |
| 20260506131155 | 62 | 82 | 7.0 | 15.0 | 0.00 | 0.00 | 0.00 | 50 | 1009.3 |
| 20260506130155 | 61 | 47 | 7.0 | 18.0 | 0.00 | 0.00 | 0.00 | 54 | 1009.3 |
| 20260506124154 | 61 | 52 | 8.0 | 16.0 | 0.00 | 0.00 | 0.00 | 55 | 1009.3 |
| 20260506123155 | 62 | 51 | 9.0 | 16.0 | 0.00 | 0.00 | 0.00 | 54 | 1009.2 |
| 20260506122156 | 61 | 351 | 6.0 | 16.0 | 0.00 | 0.00 | 0.00 | 58 | 1009.1 |
| 20260506121153 | 61 | 28 | 5.0 | 11.0 | 0.00 | 0.00 | 0.00 | 58 | 1009.1 |
| 20260506120155 | 59 | 56 | 4.0 | 15.0 | 0.00 | 0.00 | 0.00 | 59 | 1009.1 |
| 20260506115152 | 58 | 0 | 6.0 | 16.0 | 0.00 | 0.00 | 0.00 | 59 | 1009.1 |
| 20260506114152 | 58 | 59 | 5.0 | 14.0 | 0.00 | 0.00 | 0.00 | 58 | 1009.1 |
| 20260506113151 | 59 | 0 | 7.0 | 11.0 | 0.00 | 0.00 | 0.00 | 57 | 1009.2 |
| 20260506112148 | 60 | 45 | 7.0 | 15.0 | 0.00 | 0.00 | 0.00 | 54 | 1009.1 |
| 20260506111149 | 60 | 90 | 6.0 | 12.0 | 0.00 | 0.00 | 0.00 | 51 | 1009.0 |
| 20260506110146 | 59 | 83 | 7.0 | 15.0 | 0.00 | 0.00 | 0.00 | 53 | 1009.1 |
| 20260506105144 | 61 | 39 | 6.0 | 14.0 | 0.00 | 0.00 | 0.00 | 53 | 1009.0 |
| 20260506103139 | 62 | 80 | 9.0 | 18.0 | 0.00 | 0.00 | 0.00 | 52 | 1009.2 |
| 20260506102140 | 60 | 48 | 9.0 | 18.0 | 0.00 | 0.00 | 0.00 | 60 | 1009.0 |
| 20260506101137 | 57 | 75 | 4.0 | 12.0 | 0.00 | 0.00 | 0.00 | 64 | 1009.0 |
| 20260506095134 | 57 | 54 | 7.0 | 11.0 | 0.00 | 0.00 | 0.00 | 65 | 1009.0 |
| 20260506094133 | 57 | 62 | 4.0 | 12.0 | 0.00 | 0.00 | 0.00 | 65 | 1008.9 |
| 20260506093130 | 57 | 44 | 3.0 | 12.0 | 0.00 | 0.00 | 0.00 | 67 | 1009.0 |
| 20260506092108 | 56 | 55 | 7.0 | 13.0 | 0.00 | 0.00 | 0.00 | 65 | 1009.0 |
| 20260506091110 | 56 | 34 | 4.0 | 12.0 | 0.00 | 0.00 | 0.00 | 65 | 1008.8 |
| 20260506085102 | 56 | 3 | 5.0 | 12.0 | 0.00 | 0.00 | 0.00 | 70 | 1008.7 |
| 20260506084058 | 55 | 37 | 5.0 | 16.0 | 0.00 | 0.00 | 0.00 | 71 | 1008.7 |
| 20260506081051 | 55 | 87 | 6.0 | 9.0 | 0.00 | 0.00 | 0.00 | 73 | 1008.6 |
| 20260506073045 | 55 | 6 | 7.0 | 12.0 | 0.00 | 0.00 | 0.00 | 73 | 1008.5 |
| 20260506072045 | 54 | 73 | 3.0 | 7.0 | 0.00 | 0.00 | 0.00 | 75 | 1008.4 |
| 20260506071042 | 54 | 48 | 3.0 | 13.0 | 0.00 | 0.00 | 0.00 | 75 | 1008.5 |
| 20260506062026 | 53 | 63 | 7.0 | 15.0 | 0.00 | 0.00 | 0.00 | 79 | 1008.3 |
| 20260506061028 | 52 | 28 | 7.0 | 12.0 | 0.00 | 0.00 | 0.00 | 80 | 1008.1 |
| 20260506050943 | 51 | 62 | 7.0 | 12.0 | 0.00 | 0.00 | 0.00 | 81 | 1008.1 |
| 20260506044947 | 51 | 31 | 5.0 | 9.0 | 0.00 | 0.00 | 0.00 | 81 | 1008.1 |
| 20260506041936 | 50 | 55 | 4.0 | 13.0 | 0.00 | 0.00 | 0.00 | 82 | 1008.2 |
| 20260506035934 | 50 | 1 | 5.0 | 12.0 | 0.00 | 0.00 | 0.00 | 82 | 1008.2 |
| 20260506034932 | 50 | 0 | 5.0 | 9.0 | 0.00 | 0.00 | 0.00 | 81 | 1008.2 |
| 20260506033934 | 50 | 18 | 2.0 | 10.0 | 0.00 | 0.00 | 0.00 | 82 | 1008.4 |
| 20260506032933 | 50 | 51 | 5.0 | 12.0 | 0.00 | 0.00 | 0.00 | 82 | 1008.3 |
| 20260506031933 | 50 | 18 | 5.0 | 10.0 | 0.00 | 0.00 | 0.00 | 82 | 1008.4 |
| 20260506030927 | 50 | 44 | 6.0 | 10.0 | 0.00 | 0.00 | 0.00 | 82 | 1008.4 |
| 20260506025927 | 50 | 41 | 4.0 | 11.0 | 0.00 | 0.00 | 0.00 | 82 | 1008.5 |
| 20260506024925 | 50 | 0 | 5.0 | 10.0 | 0.00 | 0.00 | 0.00 | 81 | 1008.4 |
| 20260506023924 | 50 | 10 | 5.0 | 11.0 | 0.00 | 0.00 | 0.00 | 81 | 1008.5 |
| 20260506022922 | 49 | 17 | 4.0 | 12.0 | 0.00 | 0.00 | 0.00 | 81 | 1008.6 |
| 20260506021917 | 49 | 55 | 6.0 | 12.0 | 0.00 | 0.00 | 0.00 | 82 | 1008.7 |
| 20260506020912 | 49 | 37 | 4.0 | 7.0 | 0.00 | 0.00 | 0.00 | 82 | 1008.7 |
| 20260506014908 | 48 | 38 | 4.0 | 7.0 | 0.00 | 0.00 | 0.00 | 82 | 1008.9 |
| 20260506013910 | 48 | 0 | 2.0 | 5.0 | 0.00 | 0.00 | 0.00 | 81 | 1009.0 |
| 20260506012905 | 48 | 355 | 2.0 | 4.0 | 0.00 | 0.00 | 0.00 | 80 | 1009.0 |
| 20260506011904 | 48 | 355 | 3.0 | 5.0 | 0.00 | 0.00 | 0.00 | 80 | 1009.0 |
| 20260506010907 | 49 | 38 | 2.0 | 6.0 | 0.00 | 0.00 | 0.00 | 80 | 1009.0 |
| 20260506004855 | 48 | 16 | 2.0 | 5.0 | 0.00 | 0.00 | 0.00 | 80 | 1009.1 |
| 20260506003855 | 48 | 34 | 3.0 | 6.0 | 0.00 | 0.00 | 0.00 | 80 | 1009.3 |
| 20260506002853 | 48 | 319 | 2.0 | 5.0 | 0.00 | 0.00 | 0.00 | 80 | 1009.4 |
| 20260506001855 | 48 | 23 | 1.0 | 5.0 | 0.00 | 0.00 | 0.00 | 80 | 1009.5 |
| 20260506000853 | 48 | 39 | 2.0 | 3.0 | 0.00 | 0.00 | 0.00 | 79 | 1009.5 |
| 20260505235853 | 48 | 38 | 2.0 | 4.0 | 0.00 | 0.00 | 0.00 | 79 | 1009.6 |
| 20260505234851 | 48 | 17 | 1.0 | 5.0 | 0.00 | 0.00 | 0.00 | 79 | 1009.8 |
| 20260505233846 | 48 | 7 | 1.0 | 4.0 | 0.00 | 0.00 | 0.00 | 78 | 1009.9 |
| 20260505231847 | 49 | 45 | 2.0 | 4.0 | 0.00 | 0.00 | 0.00 | 76 | 1010.0 |
| 20260505230844 | 49 | 31 | 2.0 | 4.0 | 0.00 | 0.00 | 0.00 | 75 | 1010.0 |
| 20260505225841 | 49 | 24 | 1.0 | 4.0 | 0.00 | 0.00 | 0.00 | 75 | 1010.0 |
| 20260505224840 | 49 | 31 | 2.0 | 4.0 | 0.00 | 0.00 | 0.00 | 75 | 1010.0 |